Theta_e
293 292 291 290 289 289 288 288 288 287 286 286 286 286 286 286 287 287 288 288 288 289 289 289 290 291 292 293 296 297 299 300 301 308 314 314 319 321 328 328 329 326 327
292 291 291 290 289 288 288 288 287 287 286 285 286 285 286 286 286 286 287 287 288 288 288 289 289 289 291 293 294 296 298 299 300 303 310 314 319 324 324 327 326 326 325
291 291 290 289 288 288 288 288 287 287 286 285 286 285 285 285 286 286 286 287 287 287 287 287 288 288 290 292 294 295 297 299 300 302 307 313 315 319 323 328 326 325 324
291 291 290 289 288 287 287 287 287 286 285 285 286 285 285 285 285 285 286 286 286 286 287 287 287 288 289 291 292 294 296 298 299 300 305 309 312 315 319 325 327 328 325
291 290 289 288 287 287 287 287 287 286 285 284 286 284 285 284 284 285 285 285 286 285 285 286 286 289 290 291 292 293 295 297 298 300 304 308 310 314 317 320 325 324 324
290 289 288 287 287 287 287 287 286 286 286 285 285 285 284 283 284 286 287 285 285 285 285 285 287 290 291 292 292 292 293 295 297 299 301 305 308 311 314 320 321 325 324
289 288 287 287 287 286 286 286 286 286 286 286 284 284 284 284 285 286 285 286 285 286 286 286 287 289 290 292 292 292 292 293 295 297 300 302 306 309 312 316 319 321 324
288 287 286 286 286 286 286 286 286 285 285 285 285 284 284 285 286 286 285 285 285 286 286 286 287 288 289 291 292 291 292 293 294 297 299 301 303 306 309 313 317 320 320
287 286 286 286 286 286 286 286 285 285 285 284 284 284 283 284 286 286 285 284 285 285 285 286 287 288 289 290 291 292 293 293 292 294 295 299 301 305 306 309 314 318 320
287 286 286 285 285 285 285 285 285 284 284 284 284 283 282 282 283 284 285 284 284 284 285 286 287 287 288 289 290 291 292 292 293 295 296 298 300 303 305 308 310 314 317
287 286 286 285 285 285 285 284 284 285 285 284 284 284 283 281 281 282 282 284 284 283 284 286 286 287 288 288 289 289 290 291 293 293 295 297 299 301 303 306 307 310 313
287 286 286 285 285 285 285 285 284 285 285 284 284 284 283 283 282 281 281 281 283 283 284 284 286 287 287 288 288 289 290 290 291 292 293 294 296 297 299 302 303 305 308
287 287 286 286 285 285 285 284 285 284 284 284 284 283 283 282 281 282 281 282 281 281 282 282 284 285 286 287 288 289 289 290 290 290 291 291 292 293 295 299 300 301 302
287 287 287 286 287 285 284 284 283 283 283 283 283 282 282 281 281 281 281 282 282 282 282 281 282 282 282 283 285 287 288 288 288 288 288 289 291 292 293 295 297 298 300
287 286 286 286 286 286 284 283 283 283 282 282 282 281 281 280 280 280 281 281 281 282 282 282 282 281 281 281 281 282 284 286 287 288 288 289 289 290 290 291 293 294 294
287 287 287 286 285 285 285 284 283 283 283 282 282 282 281 280 280 280 280 281 281 282 282 281 281 280 280 280 280 280 281 281 282 284 286 288 288 288 288 289 290 291 291
288 287 286 286 285 284 283 283 283 283 282 282 282 282 281 280 280 280 280 281 281 281 280 280 280 280 279 279 279 279 279 279 280 280 282 284 286 286 287 287 288 289 288
288 286 286 286 285 284 283 283 283 282 282 282 281 281 281 281 281 281 281 280 280 280 279 279 279 279 279 279 279 279 279 279 279 279 280 280 282 283 284 285 285 286 286
288 286 286 285 285 284 284 283 283 282 282 282 281 281 281 281 281 281 281 280 279 279 278 278 278 278 278 278 279 279 279 279 279 279 279 279 280 280 281 282 283 284 284
289 287 286 285 285 284 284 283 283 282 282 282 281 281 281 281 281 281 280 280 279 279 279 278 278 278 278 278 278 278 279 279 279 279 278 278 279 279 280 280 281 281 282
290 288 286 285 285 284 284 283 283 282 282 282 281 281 281 281 280 280 280 280 280 279 279 278 278 278 278 278 278 278 278 278 278 278 279 278 278 278 279 279 280 280 280
290 289 287 285 285 284 284 283 283 282 282 282 281 281 281 281 280 280 280 280 280 279 279 279 278 278 278 278 278 278 278 278 278 278 278 278 278 278 278 278 278 278 279
291 289 288 287 285 284 284 284 283 282 282 282 281 281 281 281 281 280 280 280 280 279 279 279 278 278 278 278 278 278 278 278 278 278 278 278 278 278 278 277 277 277 278
291 290 289 288 287 285 284 284 284 283 282 282 282 281 281 281 281 280 280 280 280 279 279 279 279 278 278 278 278 278 277 277 277 277 278 277 277 277 277 277 277 277 277
292 290 289 289 288 287 285 284 284 284 283 282 282 282 281 281 281 280 280 280 279 279 279 279 279 278 278 278 278 277 277 277 277 277 277 277 276 276 276 276 276 276 276
293 292 291 290 289 288 288 285 284 284 283 283 282 282 281 281 280 280 280 280 279 279 279 279 278 278 278 278 278 278 277 277 277 277 277 276 276 276 276 276 276 276 276
Wind_Speed
13 14 17 19 19 18 19 20 21 21 22 24 25 24 25 27 26 22 20 20 20 20 21 21 21 20 19 18 14 9 5 5 10 12 11 6 29 8 41 51 47 45 45
13 14 16 18 18 18 19 20 21 20 21 23 24 23 25 28 27 23 22 20 20 22 22 21 22 21 20 19 17 13 7 5 8 13 8 7 16 9 10 53 49 47 39
12 13 15 17 17 17 18 19 20 20 21 23 25 25 26 27 27 23 21 21 21 20 22 21 23 24 23 22 19 16 11 5 7 9 9 9 10 4 16 31 38 39 38
12 13 15 16 16 16 17 17 19 19 21 23 25 24 25 27 27 23 21 20 20 21 22 22 23 23 22 21 20 18 14 8 4 6 5 6 10 12 7 19 41 31 41
11 13 15 15 15 15 16 17 18 19 20 22 24 24 24 27 28 24 21 21 21 21 21 23 22 22 18 17 19 19 16 11 7 4 4 4 6 8 5 6 25 44 33
11 13 14 14 14 16 16 16 16 17 19 21 24 24 25 27 27 25 22 21 22 23 25 25 24 26 22 16 16 17 16 13 9 5 4 5 3 8 4 4 5 35 35
11 12 14 15 15 15 15 15 16 17 17 19 22 23 24 27 28 24 25 22 23 25 26 28 28 28 27 20 17 18 18 14 10 7 4 6 5 6 10 6 6 5 14
11 12 14 15 15 15 15 15 16 16 16 16 19 21 23 26 27 26 25 22 23 25 26 28 29 30 29 24 19 19 19 18 14 8 4 5 6 5 6 8 7 10 10
10 12 14 15 15 16 16 15 15 15 16 15 17 19 22 24 27 28 25 22 24 24 25 26 30 31 30 26 23 20 19 19 16 11 8 5 7 7 4 5 9 10 13
10 12 13 14 15 15 16 14 14 14 14 15 16 18 22 23 26 28 28 25 24 24 25 27 29 29 29 29 27 25 23 21 20 17 9 5 4 4 5 4 2 12 15
10 11 12 13 14 14 15 14 14 14 14 15 15 16 20 24 25 26 28 28 25 24 25 27 28 28 28 28 27 27 25 20 19 20 19 17 14 8 4 2 2 3 9
8 9 10 12 13 12 14 13 14 14 14 15 15 16 17 19 24 25 26 25 24 23 25 26 25 25 25 27 27 26 25 25 24 24 23 24 23 19 14 7 4 1 2
7 7 7 10 12 12 12 13 14 14 14 15 15 16 17 19 22 24 24 25 23 21 22 22 23 24 26 27 27 29 29 30 31 30 29 28 26 23 18 9 6 4 2
5 5 6 7 8 10 11 12 14 16 15 15 15 17 17 19 23 25 25 24 22 20 20 21 22 24 26 28 31 32 31 31 32 31 30 27 24 23 23 21 17 7 7
4 4 5 6 6 6 10 13 13 16 17 18 18 15 20 22 23 23 23 23 22 21 22 23 25 28 29 30 30 31 32 32 31 30 29 28 28 27 27 24 21 19 19
5 5 4 4 5 5 5 8 12 13 14 15 16 17 17 18 18 18 19 20 19 21 22 25 27 27 27 27 28 30 31 31 29 27 28 28 27 28 28 27 25 24 22
6 5 4 5 4 4 5 5 6 10 12 13 14 15 17 18 17 17 17 19 21 21 23 24 25 25 25 25 24 25 27 27 26 27 27 26 26 26 26 26 27 26 24
7 5 5 4 4 4 4 5 6 7 8 10 12 13 15 16 17 17 17 18 20 23 23 23 23 23 23 24 25 25 25 26 26 26 26 27 27 26 26 26 26 26 24
7 6 5 4 3 3 4 5 5 6 8 9 11 12 13 14 16 16 18 21 21 21 21 21 22 22 22 22 24 25 25 26 26 26 26 27 27 25 24 24 24 24 23
8 6 5 4 3 2 3 3 4 5 6 6 7 9 10 12 13 16 18 19 20 20 20 20 22 22 23 23 24 25 25 26 27 27 26 26 27 24 22 23 23 24 23
9 8 6 5 4 3 2 2 2 3 4 5 6 7 9 11 12 14 15 16 18 18 19 20 21 21 22 23 24 24 26 26 27 26 26 25 26 24 23 23 23 22 22
10 9 8 7 6 5 3 2 1 1 2 3 4 6 7 9 9 11 12 13 15 16 17 17 18 19 20 21 22 23 24 25 26 26 26 26 26 25 23 23 24 24 24
12 11 10 9 8 7 5 4 3 1 0 1 2 3 4 5 6 7 8 10 12 13 14 15 16 17 18 19 20 21 22 23 24 24 25 26 26 26 26 25 24 24 24
13 12 11 11 9 8 8 6 5 4 3 3 2 1 0 1 2 4 5 7 8 10 11 12 13 14 15 16 18 18 19 20 21 21 22 23 23 24 24 24 25 24 25
15 13 13 12 11 10 10 9 8 8 7 6 5 4 3 2 1 1 3 4 6 7 8 9 10 11 13 14 15 16 16 17 19 20 21 21 21 22 23 23 24 23 24
16 15 14 14 13 13 12 12 12 11 10 9 8 7 6 5 4 3 1 1 3 4 5 7 8 9 10 11 12 13 14 16 17 18 19 19 20 21 21 22 23 24 24
Wind_Direction
1 359 358 359 0 3 4 4 4 2 2 3 12 11 12 11 14 12 13 14 15 15 18 17 13 10 9 10 14 5 326 316 300 272 249 203 220 264 187 206 213 210 207
4 1 359 1 4 6 8 6 6 7 5 9 15 15 13 13 14 15 13 16 17 14 15 14 14 14 11 14 12 10 347 303 303 293 279 242 220 214 204 209 207 212 213
6 3 1 4 8 10 10 9 8 9 9 12 19 22 18 14 14 18 16 14 19 17 16 17 14 12 13 14 11 14 3 329 295 311 291 252 257 288 237 189 206 207 210
9 5 4 7 11 13 12 12 10 10 12 14 24 24 19 15 14 17 15 16 19 17 18 18 15 16 12 12 12 11 8 1 314 311 312 284 268 270 345 221 203 194 204
12 9 9 11 14 15 14 14 13 12 12 16 23 24 22 18 16 17 23 16 16 18 18 20 16 25 24 19 16 10 3 6 357 316 327 326 265 260 325 329 200 213 212
16 13 13 15 16 18 16 13 14 15 14 16 22 23 21 19 21 22 29 24 21 21 20 21 20 25 28 30 28 23 8 3 3 10 356 330 282 254 292 258 208 198 203
23 18 18 20 18 17 16 15 15 14 16 18 17 22 23 21 26 25 34 23 24 25 23 23 25 25 27 29 32 30 22 14 357 4 352 319 320 277 257 270 192 223 187
30 28 26 25 22 18 17 19 18 15 15 17 19 18 22 20 26 27 35 19 28 27 26 24 27 26 27 27 32 35 29 24 21 16 352 341 326 302 261 255 214 210 223
38 37 33 31 28 24 19 20 19 18 17 21 20 19 23 21 22 27 31 25 28 27 26 25 29 29 27 29 36 40 42 44 38 28 17 350 333 312 307 261 224 189 188
47 45 39 35 32 28 23 22 21 22 22 23 25 27 22 25 26 26 29 25 26 28 29 30 31 32 30 31 35 37 40 38 41 47 52 50 35 351 328 307 224 196 188
52 51 45 38 36 29 27 27 27 26 27 28 26 28 27 27 28 30 28 29 29 25 27 31 32 32 34 37 38 39 39 41 44 46 47 52 57 55 40 358 320 213 206
58 54 47 40 37 31 29 30 29 28 31 29 28 27 27 28 31 35 33 30 28 28 31 34 37 37 38 40 44 46 47 51 50 50 47 45 46 44 47 50 43 62 243
65 56 45 39 37 34 33 33 31 29 31 30 27 24 24 25 31 37 39 36 32 32 35 35 39 40 43 43 42 43 45 47 47 46 44 43 41 40 43 53 51 28 7
90 70 57 48 47 37 35 36 35 36 35 31 32 27 29 28 33 34 33 38 40 39 40 39 43 42 41 42 41 42 42 43 43 43 44 44 43 41 38 40 49 50 34
122 96 71 63 59 48 44 45 41 38 37 35 35 29 31 33 32 31 31 31 35 44 45 43 41 40 39 39 37 37 37 38 39 38 39 41 42 42 39 37 35 39 39
143 132 111 89 72 69 54 34 43 41 39 37 36 36 38 35 33 33 33 34 36 44 46 45 42 37 33 28 28 29 31 33 30 30 32 34 35 34 35 37 37 37 32
165 160 133 110 97 79 67 59 34 42 43 38 37 36 36 35 36 39 42 45 42 46 45 43 43 40 34 30 29 28 27 27 28 27 28 27 32 32 31 32 32 34 31
178 168 157 144 126 104 91 76 60 49 42 37 39 38 39 37 37 38 43 49 45 47 45 42 39 37 36 34 33 31 28 29 30 27 27 25 27 24 24 24 23 23 24
195 183 171 163 147 125 104 85 70 58 49 41 36 34 36 39 41 40 43 50 48 45 44 42 40 39 38 37 38 37 33 31 30 29 29 27 28 22 17 17 17 18 19
203 200 193 186 178 146 112 94 78 71 66 58 49 43 41 43 43 43 44 46 47 47 46 43 43 42 40 39 37 37 38 37 34 31 28 24 27 22 18 14 15 11 9
211 209 205 204 205 195 167 126 89 72 67 61 54 47 44 51 46 44 44 45 47 47 45 46 43 42 42 41 40 39 37 37 37 35 32 28 25 20 18 16 15 14 10
217 217 215 216 219 215 203 196 177 84 60 54 51 47 43 47 47 46 44 42 43 45 44 44 43 41 40 41 40 39 37 35 34 32 32 31 27 24 21 17 16 15 12
221 222 221 222 224 226 225 223 228 232 306 18 41 44 45 47 47 47 45 44 43 41 39 40 41 40 38 38 38 39 37 35 33 31 30 29 26 23 22 19 15 13 12
225 226 226 228 232 236 236 234 236 237 238 245 248 256 3 43 45 48 46 45 43 42 40 37 36 36 35 35 34 32 31 30 30 28 25 25 21 19 17 16 13 10 8
228 229 231 237 239 241 244 244 244 245 244 246 249 249 251 254 278 21 35 36 36 35 35 33 32 30 29 27 26 24 23 20 20 19 18 20 18 16 14 12 9 8 5
231 232 235 239 243 243 246 248 248 247 247 247 249 251 254 257 257 263 288 360 20 22 21 22 22 21 21 19 17 14 11 10 11 12 11 13 12 11 9 8 5 4 1